EW8543 Weather Reports


Display with metric or nautical units.
time (UTC)temp
F
wind
direction
speed
MPH
gust
MPH
rain 1hr
in
rain 24hr
in
rain mn
in
humidity
%
barometer
mb
20260504192020 54 360 6.0 14.0 0.00 0.04 0.01 90 1013.4
20260504191528 54 344 7.0 14.0 0.00 0.04 0.01 90 1013.4
20260504191017 54 18 5.0 12.0 0.00 0.04 0.01 90 1013.4
20260504190546 54 360 8.0 13.0 0.00 0.04 0.01 90 1013.3
20260504190039 54 355 7.0 14.0 0.00 0.04 0.01 90 1013.3
20260504185526 54 341 5.0 14.0 0.00 0.04 0.01 90 1013.4
20260504185035 55 323 5.0 13.0 0.00 0.04 0.01 89 1013.4
20260504184523 55 35 4.0 14.0 0.00 0.04 0.01 89 1013.3
20260504184032 55 328 7.0 14.0 0.00 0.04 0.01 89 1013.4
20260504183517 55 333 5.0 15.0 0.00 0.04 0.01 89 1013.4
20260504183046 55 360 8.0 15.0 0.00 0.04 0.01 89 1013.4
20260504182534 55 324 5.0 13.0 0.00 0.04 0.01 89 1013.3
20260504182022 55 334 7.0 14.0 0.00 0.04 0.01 88 1013.3
20260504181531 55 317 7.0 14.0 0.00 0.04 0.01 88 1013.3
20260504181016 56 337 8.0 13.0 0.00 0.04 0.01 87 1013.3
20260504180545 56 332 6.0 11.0 0.00 0.04 0.01 87 1013.3
20260504180026 57 345 5.0 9.0 0.00 0.04 0.01 86 1013.3
20260504175516 57 15 3.0 15.0 0.00 0.04 0.01 86 1013.3
20260504175040 56 340 7.0 15.0 0.00 0.04 0.01 86 1013.3
20260504174548 57 332 7.0 15.0 0.00 0.04 0.01 86 1013.3
20260504174015 57 10 7.0 15.0 0.00 0.04 0.01 85 1013.3
20260504173525 57 10 7.0 16.0 0.00 0.04 0.01 85 1013.3
20260504173029 57 55 6.0 16.0 0.00 0.04 0.01 85 1013.3
20260504172519 57 319 10.0 14.0 0.00 0.04 0.01 85 1013.4
20260504172048 57 23 3.0 18.0 0.00 0.04 0.01 86 1013.4
20260504171517 57 14 9.0 18.0 0.00 0.04 0.01 85 1013.4
20260504171026 57 11 8.0 16.0 0.00 0.04 0.01 85 1013.4
20260504170550 57 360 6.0 13.0 0.00 0.04 0.01 86 1013.4
20260504151033 57 360 8.0 14.0 0.00 0.04 0.01 90 1013.3
20260504150521 57 55 5.0 13.0 0.00 0.04 0.01 90 1013.3
20260504141045 57 360 6.0 13.0 0.00 0.04 0.01 90 1013.4
20260504140533 57 340 7.0 13.0 0.00 0.04 0.01 88 1013.5
20260504130533 60 323 5.0 11.0 0.00 0.04 0.01 85 1013.7
20260504110530 60 9 5.0 8.0 0.00 0.08 0.01 85 1013.7
20260504100531 60 355 4.0 8.0 0.00 0.12 0.01 86 1013.9
20260504081519 58 283 2.0 4.0 0.00 0.28 0.01 90 1013.4
20260504081047 58 303 2.0 4.0 0.00 0.28 0.01 90 1013.3
20260504080514 58 334 2.0 3.0 0.00 0.28 0.01 91 1013.3
20260504050543 56 196 0.0 1.0 0.00 0.28 0.00 97 1011.9
20260504050017 55 196 0.0 0.0 0.00 0.28 0.00 97 1011.8
20260504045519 55 196 0.0 0.0 0.00 0.28 0.00 97 1011.9
20260504045020 55 196 0.0 0.0 0.00 0.28 0.00 97 1011.8
20260504044520 55 196 0.0 0.0 0.00 0.28 0.00 97 1011.6
20260504044014 55 196 0.0 0.0 0.00 0.28 0.00 97 1011.6
20260504043513 55 196 0.0 0.0 0.00 0.28 0.00 97 1011.6
20260504043032 55 196 0.0 0.0 0.00 0.28 0.00 97 1011.4
20260504042513 55 196 0.0 0.0 0.00 0.28 0.00 97 1011.4
20260504042028 56 196 0.0 0.0 0.00 0.28 0.00 97 1011.4
20260504041530 55 196 0.0 0.0 0.00 0.28 0.00 97 1011.4
20260504041030 55 196 0.0 0.0 0.00 0.28 0.00 97 1011.3
20260504040528 55 196 0.0 1.0 0.00 0.28 0.00 97 1011.4
20260504040017 55 196 0.0 1.0 0.00 0.28 0.00 97 1011.4
20260504035516 55 196 0.0 0.0 0.00 0.28 0.00 97 1011.4
20260504035015 55 196 0.0 0.0 0.00 0.28 0.00 97 1011.4
20260504034534 55 196 0.0 0.0 0.00 0.28 0.00 97 1011.4
20260504034031 55 196 0.0 1.0 0.00 0.28 0.00 97 1011.4
20260504033532 55 196 0.0 1.0 0.00 0.28 0.00 97 1011.3
20260504033030 55 196 0.0 0.0 0.00 0.28 0.00 97 1011.4
20260504032528 55 196 0.0 0.0 0.00 0.28 0.00 97 1011.4
20260504032026 55 196 0.0 0.0 0.00 0.28 0.00 96 1011.5
20260504031527 55 196 0.0 0.0 0.00 0.28 0.00 96 1011.5
20260504031046 55 196 0.0 1.0 0.00 0.28 0.00 96 1011.6
20260504030523 55 196 0.0 1.0 0.00 0.28 0.00 96 1011.7
20260504030015 55 196 0.0 3.0 0.00 0.28 0.00 96 1011.6
20260504025517 56 196 1.0 3.0 0.00 0.43 0.00 96 1011.6
20260504025020 56 196 0.0 3.0 0.00 0.43 0.00 96 1011.6
20260504024542 56 196 1.0 3.0 0.00 0.43 0.00 96 1011.6
20260504024038 56 196 1.0 6.0 0.00 0.43 0.00 96 1011.6
20260504023518 57 236 3.0 6.0 0.00 0.43 0.00 96 1011.4
20260504023020 56 228 5.0 6.0 0.00 0.43 0.00 96 1011.5
20260504022523 56 248 3.0 4.0 0.00 0.43 0.00 96 1011.5
20260504022021 56 221 2.0 4.0 0.00 0.43 0.00 96 1011.4
20260504021550 55 221 2.0 3.0 0.00 0.43 0.00 96 1011.6
20260504021029 55 116 1.0 3.0 0.00 0.43 0.00 96 1011.5
20260504020529 55 116 1.0 3.0 0.00 0.43 0.00 96 1011.4
20260504020023 55 116 1.0 2.0 0.00 0.43 0.00 96 1011.4
20260504015522 55 116 1.0 2.0 0.00 0.43 0.00 96 1011.5
20260504015022 55 116 0.0 1.0 0.00 0.43 0.00 96 1011.4
20260504014522 55 116 0.0 1.0 0.00 0.43 0.00 96 1011.5
20260504014019 55 116 0.0 0.0 0.00 0.43 0.00 96 1011.6
20260504013521 55 116 0.0 1.0 0.00 0.43 0.00 96 1011.5
20260504013025 55 116 0.0 2.0 0.00 0.43 0.00 96 1011.5
20260504012526 55 116 0.0 2.0 0.00 0.43 0.00 96 1011.4
20260504012024 55 116 0.0 1.0 0.00 0.43 0.00 96 1011.5
20260504011525 55 116 0.0 1.0 0.00 0.43 0.00 96 1011.6
20260504011024 55 116 0.0 1.0 0.00 0.43 0.00 96 1011.6
20260504010525 55 116 0.0 1.0 0.00 0.43 0.00 96 1011.6
20260504010021 55 116 0.0 0.0 0.00 0.43 0.00 96 1011.4
20260504005540 55 116 0.0 0.0 0.00 0.43 0.00 96 1011.4
20260504005018 55 116 0.0 0.0 0.00 0.43 0.00 96 1011.4
20260504004539 56 116 0.0 0.0 0.00 0.43 0.00 96 1011.4
20260504004014 56 116 0.0 0.0 0.00 0.43 0.00 96 1011.4
20260504003515 56 116 0.0 1.0 0.00 0.43 0.00 96 1011.4
20260504003013 56 116 0.0 1.0 0.00 0.43 0.00 96 1011.4
20260504002513 56 116 0.0 2.0 0.00 0.43 0.00 96 1011.5
20260504002015 56 116 0.0 1.0 0.00 0.43 0.00 96 1011.5
20260504001531 56 116 0.0 2.0 0.00 0.43 0.00 96 1011.4
20260504001031 56 116 1.0 2.0 0.00 0.43 0.00 96 1011.3
20260504000514 56 116 0.0 2.0 0.00 0.43 0.00 96 1011.4
20260504000046 56 116 0.0 0.0 0.00 0.43 0.00 96 1011.5
20260503235547 56 116 0.0 0.0 0.00 0.51 0.00 96 1011.5
20260503235026 56 116 0.0 0.0 0.00 0.51 0.00 96 1011.4
20260503234547 56 116 0.0 0.0 0.00 0.51 0.00 96 1011.5
20260503234022 56 116 0.0 0.0 0.00 0.51 0.00 95 1011.6
20260503233523 56 116 0.0 0.0 0.00 0.51 0.00 95 1011.5
20260503233023 56 116 0.0 1.0 0.00 0.51 0.00 95 1011.6
20260503232526 56 116 0.0 2.0 0.00 0.51 0.00 96 1011.6
20260503232024 56 116 0.0 2.0 0.00 0.51 0.00 96 1011.6
20260503231525 56 116 0.0 2.0 0.00 0.51 0.00 95 1011.6
20260503231024 57 116 1.0 3.0 0.00 0.51 0.00 95 1011.6
20260503230528 57 116 1.0 3.0 0.00 0.51 0.00 95 1011.6
20260503230024 57 116 1.0 3.0 0.00 0.51 0.00 95 1011.5
20260503225522 57 116 1.0 3.0 0.00 0.51 0.00 95 1011.5
20260503225024 57 116 0.0 2.0 0.00 0.51 0.00 95 1011.5
20260503224526 57 116 1.0 2.0 0.00 0.51 0.00 95 1011.6
20260503224028 57 116 0.0 2.0 0.00 0.51 0.00 96 1011.4
20260503223525 57 116 0.0 4.0 0.00 0.51 0.00 96 1011.4
20260503223027 57 116 0.0 4.0 0.00 0.51 0.00 96 1011.5
20260503222548 57 161 0.0 6.0 0.00 0.51 0.00 96 1011.6
20260503222031 57 141 3.0 6.0 0.00 0.51 0.00 96 1011.6
20260503221531 57 134 3.0 5.0 0.00 0.51 0.00 96 1011.5
20260503221014 57 126 2.0 4.0 0.00 0.51 0.00 96 1011.5
20260503220518 57 136 1.0 4.0 0.00 0.51 0.00 96 1011.4
20260503220014 57 136 1.0 4.0 0.00 0.51 0.00 96 1011.4
20260503215533 57 136 2.0 4.0 0.00 0.63 0.10 95 1011.4
20260503215015 57 136 1.0 3.0 0.00 0.63 0.10 95 1011.4
20260503214520 57 136 2.0 3.0 0.00 0.63 0.10 95 1011.3
20260503214041 57 136 1.0 3.0 0.00 0.63 0.10 95 1011.3
20260503213539 57 136 1.0 3.0 0.00 0.63 0.10 95 1011.2
20260503213042 57 136 1.0 3.0 0.00 0.63 0.10 95 1011.3
20260503212550 57 136 2.0 4.0 0.00 0.63 0.10 95 1011.3
20260503212012 57 136 2.0 3.0 0.00 0.63 0.10 95 1011.4
20260503211511 57 136 2.0 4.0 0.00 0.63 0.10 95 1011.4
20260503211014 58 134 1.0 5.0 0.00 0.63 0.10 95 1011.3
20260503210517 58 188 2.0 5.0 0.00 0.63 0.10 94 1011.3
20260503210014 58 136 1.0 4.0 0.00 0.63 0.10 94 1011.3
20260503205513 58 138 3.0 6.0 0.00 0.87 0.10 94 1011.3
20260503205017 58 175 2.0 6.0 0.00 0.87 0.10 94 1011.4
20260503204520 58 153 1.0 5.0 0.00 0.87 0.10 94 1011.4
20260503204025 58 165 2.0 5.0 0.00 0.87 0.10 94 1011.3
20260503203544 58 123 2.0 6.0 0.00 0.87 0.10 94 1011.3
20260503203027 58 144 2.0 7.0 0.00 0.87 0.10 94 1011.4
20260503202530 58 161 3.0 7.0 0.00 0.87 0.10 94 1011.4
20260503202033 58 140 2.0 5.0 0.00 0.87 0.10 94 1011.5
20260503201516 58 139 2.0 5.0 0.00 0.87 0.10 94 1011.3
20260503201014 58 113 2.0 7.0 0.00 0.87 0.10 94 1011.3
20260503200517 58 166 2.0 7.0 0.00 0.87 0.10 93 1011.2
20260503200014 59 138 1.0 5.0 0.00 0.87 0.10 93 1011.1
20260503195518 59 150 2.0 5.0 0.00 0.87 0.10 93 1011.0
20260503195019 59 121 3.0 5.0 0.00 0.87 0.10 93 1011.0
20260503194522 59 188 2.0 5.0 0.00 0.87 0.10 93 1010.9
20260503194025 59 161 2.0 6.0 0.00 0.87 0.10 92 1010.8
20260503193530 59 161 3.0 6.0 0.00 0.87 0.10 92 1010.8
20260503193013 59 159 3.0 5.0 0.00 0.87 0.10 92 1010.8
20260503192514 60 153 2.0 5.0 0.00 0.87 0.10 92 1010.8